[[{"header":{"parameterUnit":"m.s-1","parameterCategory":1,"la1":30.2991,"la2":30.254,"lo1":-89.0895,"lo2":-89.0444,"dy":0.0017,"dx":0.0017,"nx":28,"ny":28,"refTime":"2025-06-18T21:00:00:Z","depth":0,"parameterNumber":2,"parameterNumberName":"U-component_of_WINDS"},"data":[0,0,0,0,0,0,0,0,0,0,0,0,0,0,0,0,0,0,0,0,0,0,0,0,0,0,0,0,0,0,0,0,0,0,0,0,0,0,0,0,0,0,0,0,0,0,0,0,0,0,0,0,0,0,0,0,0,0,2.9779,2.9778,0,2.9767,2.9767,2.9767,2.9657,2.9654,2.9651,2.9649,2.9638,2.9641,2.9643,0,0,0,0,0,0,0,0,0,0,0,0,0,2.9709,2.9711,2.9779,2.9778,2.9778,2.9767,2.9767,2.9767,2.9657,2.9654,2.9651,2.9648,2.9638,2.964,2.9643,0,0,0,0,0,0,0,0,0,0,0,0,0,2.9723,2.9712,2.9779,2.9722,2.9717,2.9767,2.9767,2.9766,2.9658,2.9654,2.965,2.9646,2.9637,2.964,2.9643,2.9747,0,0,2.9654,2.9655,0,0,0,0,0,0,0,0,2.9722,2.9725,2.9731,2.9726,2.9721,2.9709,2.9738,2.976,2.9659,2.9681,2.9649,2.9644,2.9665,2.9666,2.9673,2.9746,2.9746,2.9654,2.9656,2.9658,2.9659,0,0,0,0,0,0,0,2.9721,2.9725,2.9774,2.9731,2.9725,2.9699,2.9696,2.9742,2.9696,2.9678,2.967,2.967,2.9662,2.967,2.9672,2.9745,2.9654,2.9657,2.9659,2.966,2.9904,2.9908,0,0,0,0,0,0,2.9728,2.9725,2.9774,2.9774,2.9711,2.9703,2.97,2.9717,2.9695,2.9688,2.9674,2.9665,2.9666,2.9668,2.9671,2.9791,2.9658,2.9661,2.9663,2.99,2.9905,2.991,0,0,0,0,0,0,2.9727,2.9733,2.9775,2.9747,2.975,2.9709,2.9728,2.9719,2.9727,2.9692,2.9683,2.969,2.9663,2.9666,2.9729,2.9789,2.9662,2.9665,2.9894,2.9901,2.9907,3.0031,0,0,0,0,0,0,2.9725,2.9734,2.9771,2.9749,2.9752,2.9832,2.9732,2.9722,2.9733,2.9721,2.9705,2.9699,2.966,2.9724,2.9732,2.9791,2.9668,2.9889,2.9897,2.9905,3.0021,3.0041,3.0058,0,0,0,0,0,2.9723,2.9807,2.9774,2.978,2.9799,2.9836,2.9838,2.9791,2.9738,2.9776,2.9754,2.9699,2.9781,2.9732,2.974,2.9801,2.9885,2.9895,2.9905,3.0013,3.0037,3.0057,0,0,0,0,0,0,2.9837,2.9803,2.9766,2.9844,2.9844,2.9817,2.9863,2.9818,2.9833,2.9821,2.9764,2.9761,2.9833,2.9823,2.9768,2.99,2.9824,2.9836,2.9903,2.9926,2.9944,2.9944,2.9671,0,0,0,0,0,2.9872,2.9904,2.9872,2.9945,2.9946,2.9906,2.992,2.9884,2.9881,2.9881,2.9863,2.9863,2.9889,2.9907,2.9929,3.002,3.0015,3.0066,3.0084,3.0099,3.011,3.0158,3.0181,2.9942,2.9942,2.9942,0,0,2.9943,2.9928,2.9951,2.9967,2.9962,2.9998,2.9906,2.9947,2.9973,2.9887,2.9944,2.9932,2.9929,3.0006,3.0039,3.0,3.0175,3.0112,3.0124,3.0127,3.0171,3.0193,3.0214,2.9949,2.9948,2.9947,0,0,3.009,3.0082,3.0142,3.0139,3.0134,3.0107,3.0121,3.0102,3.009,3.0148,3.0084,3.0115,3.016,3.0161,3.0167,3.0318,3.0267,3.0327,3.0421,3.0469,3.0488,3.0504,3.0558,3.0578,3.0338,3.0338,3.0338,0,3.0179,3.0229,3.0178,3.0224,3.0233,3.0158,3.0219,3.0219,3.0221,3.023,3.0186,3.0242,3.0235,3.0311,3.0349,3.0356,3.0372,3.0327,3.0489,3.0505,3.052,3.057,3.059,3.0345,3.0344,3.0343,3.0343,0,3.0339,3.0375,3.0424,3.0428,3.0443,3.0497,3.0455,3.0477,3.0441,3.0419,3.0479,3.0467,3.0486,3.0502,3.0467,3.0574,3.055,3.0499,3.0421,3.055,3.0597,3.0616,3.0355,3.0353,3.0351,3.0349,0,0,3.0555,3.0532,3.0551,3.0553,3.0542,3.0569,3.0621,3.0638,3.0658,3.0663,3.0704,3.0746,3.0699,3.0706,3.0671,3.0713,3.0834,3.0657,3.0656,3.0689,3.0952,3.0989,3.1013,3.0801,3.0805,3.0808,3.0952,0,3.0697,3.0781,3.0738,3.0828,3.0861,3.0792,3.0836,3.0835,3.0817,3.0843,3.0822,3.0853,3.0788,3.0792,3.0831,3.0811,3.0885,3.08,3.0839,3.0841,3.0841,3.1037,3.1076,3.1213,3.097,3.0973,3.0975,0,3.0872,3.0885,3.0979,3.0963,3.0976,3.1016,3.103,3.1056,3.1054,3.1038,3.1047,3.1003,3.1053,3.0977,3.1045,3.0988,3.1002,3.0995,3.0999,3.0999,3.0915,3.1042,3.1255,3.1275,3.1003,3.1001,3.0999,0,3.102,3.1061,3.1122,3.1126,3.111,3.114,3.1135,3.1129,3.1143,3.1156,3.1165,3.1184,3.1194,3.121,3.1172,3.112,3.1245,3.1166,3.1233,3.1234,3.1261,3.126,3.1479,3.1273,3.1272,3.1272,3.1272,0,3.1182,3.1242,3.1189,3.1226,3.1292,3.1243,3.131,3.1297,3.1293,3.1328,3.1269,3.1303,3.1252,3.1281,3.1252,3.1313,3.1318,3.1307,3.1298,3.1311,3.1313,3.1318,3.1307,3.1277,3.1276,3.1275,3.1274,0,3.1358,3.1324,3.1387,3.1367,3.1364,3.1413,3.1396,3.1431,3.1409,3.1454,3.1462,3.1428,3.1459,3.1424,3.1453,3.1433,3.1515,3.1493,3.1516,3.1509,3.1578,3.1571,3.1807,3.1835,3.1613,3.1615,3.1617,0,3.1462,3.1507,3.1493,3.1511,3.151,3.1541,3.1556,3.1511,3.1528,3.1531,3.1565,3.1592,3.161,3.1664,3.1643,3.1665,3.1642,3.1723,3.1645,3.1657,3.1642,3.164,3.1644,3.1739,3.1741,3.1744,3.1745,0,3.1652,3.1634,3.1656,3.1675,3.1694,3.1706,3.1713,3.1732,3.1686,3.1709,3.174,3.1755,3.1785,3.1812,3.1828,3.1823,3.1777,3.1771,3.1787,3.18,3.1811,3.1805,3.1558,3.1765,3.1763,3.1761,3.176,3.176,3.1794,3.1831,3.1827,3.1855,3.1856,3.1865,3.1897,3.188,3.1905,3.1925,3.1898,3.1937,3.1936,3.1953,3.1954,3.1984,3.195,3.1974,3.1979,3.1986,3.1996,3.1808,3.1987,3.1987,3.1986,3.1986,3.1985,0,3.198,3.1974,3.2001,3.2013,3.2036,3.1991,3.1998,3.202,3.2055,3.2058,3.2078,3.2115,3.2142,3.2123,3.2146,3.2174,3.2153,3.2181,3.2178,3.2177,3.2026,3.2009,3.2197,3.2197,3.2197,3.2197,3.2197,3.2197,3.2079,3.2138,3.2121,3.2181,3.2175,3.2213,3.2221,3.2229,3.2231,3.2275,3.2297,3.2285,3.2279,3.2301,3.2324,3.2318,3.2329,3.2364,3.2351,3.2209,3.2188,3.2168,3.2152,3.2367,3.2368,3.2499,3.2501,3.2502]},{"header":{"parameterUnit":"m.s-1","parameterCategory":1,"la1":30.2991,"la2":30.254,"lo1":-89.0895,"lo2":-89.0444,"dy":0.0017,"dx":0.0017,"nx":28,"ny":28,"refTime":"2025-06-18T21:00:00:Z","depth":0,"parameterNumber":3,"parameterNumberName":"V-component_of_WINDS"},"data":[0,0,0,0,0,0,0,0,0,0,0,0,0,0,0,0,0,0,0,0,0,0,0,0,0,0,0,0,0,0,0,0,0,0,0,0,0,0,0,0,0,0,0,0,0,0,0,0,0,0,0,0,0,0,0,0,0,0,3.3952,3.3954,0,3.407,3.4071,3.4072,3.409,3.4089,3.4088,3.4087,3.4202,3.4206,3.421,0,0,0,0,0,0,0,0,0,0,0,0,0,3.3735,3.3739,3.3952,3.3954,3.3955,3.4069,3.4071,3.4073,3.409,3.4089,3.4087,3.4086,3.4201,3.4206,3.421,0,0,0,0,0,0,0,0,0,0,0,0,0,3.3838,3.374,3.3952,3.3978,3.3981,3.4069,3.4071,3.4073,3.409,3.4089,3.4087,3.4086,3.4199,3.4205,3.4211,3.428,0,0,3.423,3.4232,0,0,0,0,0,0,0,0,3.3832,3.3846,3.3973,3.3976,3.398,3.4064,3.4037,3.4142,3.4091,3.4049,3.4087,3.4085,3.4157,3.4166,3.4192,3.4285,3.429,3.423,3.4234,3.4237,3.4238,0,0,0,0,0,0,0,3.3825,3.3841,3.3999,3.3974,3.3979,3.398,3.3993,3.4057,3.411,3.4052,3.4054,3.4068,3.4159,3.4186,3.4195,3.4292,3.423,3.4235,3.4239,3.4242,3.4441,3.4442,0,0,0,0,0,0,3.3814,3.3835,3.3995,3.4002,3.3901,3.3986,3.4,3.4038,3.411,3.4119,3.4069,3.4068,3.4176,3.4187,3.4199,3.428,3.4236,3.4242,3.4246,3.4439,3.4441,3.4443,0,0,0,0,0,0,3.3809,3.3828,3.399,3.3919,3.394,3.3991,3.4034,3.4041,3.4069,3.4122,3.4131,3.4087,3.4175,3.419,3.4258,3.4284,3.4245,3.425,3.4437,3.444,3.4442,3.4445,0,0,0,0,0,0,3.3803,3.3827,3.3856,3.392,3.3944,3.4051,3.4036,3.4045,3.408,3.408,3.4142,3.4151,3.4175,3.4249,3.4264,3.4292,3.4255,3.4435,3.4438,3.4441,3.4443,3.4448,3.4452,0,0,0,0,0,3.3795,3.3853,3.3857,3.3876,3.3982,3.4052,3.4066,3.4095,3.4082,3.411,3.4143,3.4149,3.4279,3.4256,3.4273,3.4303,3.4434,3.4437,3.4441,3.4441,3.4447,3.4451,0,0,0,0,0,0,3.3791,3.3862,3.3868,3.3948,3.3994,3.4055,3.4092,3.41,3.415,3.4148,3.418,3.4193,3.4259,3.4288,3.4261,3.437,3.4355,3.4362,3.4349,3.4355,3.4359,3.435,3.426,0,0,0,0,0,3.3799,3.3853,3.3911,3.3976,3.3998,3.4041,3.4073,3.409,3.4139,3.4158,3.4197,3.4242,3.4292,3.4325,3.4375,3.4447,3.4458,3.4475,3.4479,3.4482,3.4488,3.4523,3.453,3.4455,3.4455,3.4455,0,0,3.3817,3.3862,3.3894,3.3976,3.4014,3.4065,3.4057,3.4114,3.4151,3.4166,3.4233,3.4262,3.4314,3.4383,3.4415,3.4409,3.4511,3.4487,3.4489,3.4493,3.4527,3.4534,3.454,3.4458,3.4457,3.4457,0,0,3.3875,3.3917,3.3973,3.401,3.4066,3.4093,3.4106,3.4165,3.4185,3.4252,3.4263,3.4306,3.4395,3.4429,3.4459,3.4523,3.4528,3.4538,3.4559,3.4593,3.4599,3.4604,3.4623,3.463,3.4543,3.4543,3.4543,0,3.389,3.397,3.4,3.4055,3.4088,3.4103,3.4157,3.4191,3.4261,3.4282,3.4274,3.4381,3.4417,3.4492,3.4507,3.4531,3.4544,3.4531,3.4596,3.4601,3.4607,3.4625,3.4633,3.4544,3.4544,3.4544,3.4544,0,3.3983,3.4038,3.4076,3.4142,3.4179,3.4234,3.4268,3.4302,3.4314,3.434,3.4405,3.4448,3.4505,3.4524,3.4538,3.4599,3.4592,3.459,3.4575,3.4614,3.4632,3.4639,3.4545,3.4545,3.4544,3.4544,0,0,3.4045,3.4123,3.4136,3.4164,3.4225,3.4267,3.4319,3.4374,3.44,3.4446,3.4488,3.4559,3.4555,3.4588,3.4605,3.4635,3.4677,3.4628,3.4629,3.4633,3.4742,3.4742,3.4751,3.4681,3.4682,3.4683,3.4736,0,3.4108,3.4204,3.4229,3.4309,3.4357,3.4369,3.4414,3.4454,3.4478,3.452,3.4546,3.4595,3.4588,3.4607,3.4637,3.4666,3.4699,3.4662,3.4717,3.4718,3.4702,3.4761,3.4763,3.4811,3.4744,3.4745,3.4746,0,3.4196,3.4242,3.4327,3.4376,3.4397,3.4438,3.4487,3.4528,3.4572,3.4587,3.4621,3.4633,3.4684,3.4666,3.4733,3.4707,3.473,3.4747,3.4749,3.4755,3.4734,3.4765,3.4827,3.4834,3.4758,3.4757,3.4756,0,3.4228,3.4312,3.4372,3.4396,3.4456,3.4483,3.4509,3.4551,3.458,3.4623,3.4641,3.4689,3.4714,3.4749,3.4772,3.4758,3.4836,3.4821,3.4847,3.4846,3.4863,3.4861,3.4928,3.488,3.488,3.488,3.488,0,3.4295,3.4346,3.4387,3.4423,3.4478,3.4504,3.4557,3.4583,3.4619,3.4658,3.4671,3.4707,3.4736,3.4775,3.4793,3.4843,3.4855,3.4866,3.487,3.4865,3.4863,3.488,3.4876,3.4882,3.4882,3.4881,3.4881,0,3.4341,3.4371,3.4437,3.4487,3.45,3.4538,3.4579,3.4613,3.4636,3.4685,3.4698,3.4734,3.4779,3.4806,3.4864,3.4875,3.493,3.4934,3.4916,3.4917,3.494,3.4937,3.5019,3.5029,3.4977,3.4977,3.4978,0,3.4382,3.442,3.4473,3.4501,3.4527,3.4571,3.4601,3.4626,3.4656,3.4704,3.4731,3.4778,3.4816,3.4888,3.4917,3.496,3.4963,3.4988,3.4969,3.496,3.496,3.4957,3.4959,3.4991,3.4992,3.4992,3.4993,0,3.4449,3.446,3.4503,3.455,3.4584,3.4622,3.466,3.4681,3.4711,3.4743,3.479,3.482,3.4877,3.4921,3.4965,3.4989,3.4994,3.4998,3.5006,3.5,3.4987,3.4991,3.4922,3.4996,3.4996,3.4995,3.4995,3.4995,3.4491,3.4524,3.4565,3.4611,3.4641,3.4674,3.4707,3.4733,3.4773,3.4822,3.4834,3.4882,3.4918,3.4978,3.5002,3.5037,3.5033,3.5045,3.5048,3.505,3.5049,3.4981,3.5046,3.5046,3.5046,3.5046,3.5046,0,3.4556,3.4582,3.4624,3.4675,3.4709,3.4712,3.4752,3.478,3.4822,3.4856,3.4893,3.4944,3.4985,3.5016,3.5058,3.508,3.5083,3.509,3.5088,3.5092,3.5052,3.504,3.5086,3.5086,3.5086,3.5086,3.5086,3.5086,3.4594,3.4648,3.4663,3.473,3.4756,3.4803,3.4825,3.4854,3.4881,3.4937,3.4972,3.4992,3.5023,3.5067,3.5103,3.5111,3.5124,3.513,3.5138,3.51,3.5096,3.5091,3.508,3.5134,3.5134,3.5174,3.5175,3.5175]}]]